Location: Conflandey
(47.7287°N, 6.0456°E)
Time: 02:24:51
(UTC+00:00)

Cosmos 2322 Rocket - Pass Details

Date: 24 October 2021
Orbit: 832 x 851 km, 71.0° (Epoch: 05 December)

Event Time Altitude Azimuth Distance (km) Brightness Sun altitude
Rises 19:48:32 0° 251° (WSW) 3,372 6.0 -33.5°
Reaches altitude 10° 19:51:31 10° 266° (W) 2,443 5.3 -33.9°
Maximum altitude 19:55:49 22° 317° (NW) 1,751 4.3 -34.6°
Enters shadow 19:59:59 11° 6° (N) 2,417 4.7 -35.3°
